Погода в Наурской

Россия / Чеченская Республика     43°38′59″N   45°18′33″E
темп.,
°C
ветер,
м/с
пор.,
м/с
влажн.,
%
обл.,
%
осадки,
мм/ч
давл.,
гПа
погр.,
м
16 мая, вс
вс1600:00+18в1256100 0.0 101114
03:00+17вюв226538 0.0 101024
06:00+18в23665 0.0 1010104
09:00+23всв22462 0.0 1009442
12:00+29вюв44393 0.0 1007918
15:00+31в77260 0.0 10051317
18:00+25в712410 0.0 1005396
21:00+20в47415 0.0 1005129
17 мая, пн
пн1700:00+18в2348100 0.0 100432
03:00+17вюв11545 0.0 100412
06:00+17в23646 0.0 100591
09:00+25в334127 0.0 1005436
12:00+30в34330 0.0 1004819
15:00+32в44281 0.0 10031236
18:00+26в4747100 0.0 1003185
21:00+21з71377100 0.0 1006472
18 мая, вт
вт1800:00+19з51085100 0.0 1006311
03:00+18зсз81589100 0.9 1007657
06:00+18зсз6118497 0.6 1010828
09:00+20зсз7972100 0.6 10111096
12:00+22сз5763100 0.0 10111282
15:00+24з445378 0.0 10101483
18:00+22з236385 0.1 101153
21:00+21з2265100 0.1 101228
19 мая, ср
ср1900:00+16з368553 0.0 1012129
03:00+15зсз23875 0.0 101236
06:00+17з238086 0.0 1013106
09:00+23сз33560 0.0 1014835
12:00+26ссз33430 0.0 10141618
15:00+28с333642 0.0 10142234
18:00+24ссз51052100 0.0 1016485
21:00+21сз4955100 0.0 1018436
20 мая, чт
чт2000:00+19зсз236385 0.0 101894
03:00+16ссз22700 0.0 101811
06:00+19вюв24704 0.0 1013120
09:00+25вюв46530 0.0 1012624
12:00+31в56380 0.0 10101299
15:00+32в78340 0.0 10091319
18:00+26в610440 0.0 1009498
21:00+20в48590 0.0 1009199